CCSDS_OMM_VERS = 2.0 CREATION_DATE = ORIGINATOR = OBJECT_NAME = BEIDOU-2 IGSO-1 (C06) OBJECT_ID = 2010-036A CENTER_NAME = EARTH REF_FRAME = TEME TIME_SYSTEM = UTC MEAN_ELEMENT_THEORY = SGP/SGP4 EPOCH = 2026-08-21T18:11:43.719360 MEAN_MOTION = 1.00253816 ECCENTRICITY = .00581868 INCLINATION = 54.3073 RA_OF_ASC_NODE = 162.3689 ARG_OF_PERICENTER = 224.3483 MEAN_ANOMALY = 321.2966 EPHEMERIS_TYPE = 0 CLASSIFICATION_TYPE = U NORAD_CAT_ID = 36828 ELEMENT_SET_NO = 999 REV_AT_EPOCH = 5875 BSTAR = 0 MEAN_MOTION_DOT = -.13700E-5 MEAN_MOTION_DDOT = 0 CCSDS_OMM_VERS = 2.0 CREATION_DATE = ORIGINATOR = OBJECT_NAME = BEIDOU-2 G4 (C04) OBJECT_ID = 2010-057A CENTER_NAME = EARTH REF_FRAME = TEME TIME_SYSTEM = UTC MEAN_ELEMENT_THEORY = SGP/SGP4 EPOCH = 2026-09-12T07:32:21.605280 MEAN_MOTION = 1.00270634 ECCENTRICITY = .000799 INCLINATION = 3.8586 RA_OF_ASC_NODE = 68.3272 ARG_OF_PERICENTER = 180.0187 MEAN_ANOMALY = 16.0579 EPHEMERIS_TYPE = 0 CLASSIFICATION_TYPE = U NORAD_CAT_ID = 37210 ELEMENT_SET_NO = 999 REV_AT_EPOCH = 5816 BSTAR = 0 MEAN_MOTION_DOT = -.12500E-5 MEAN_MOTION_DDOT = 0 CCSDS_OMM_VERS = 2.0 CREATION_DATE = ORIGINATOR = OBJECT_NAME = BEIDOU-2 IGSO-2 (C07) OBJECT_ID = 2010-068A CENTER_NAME = EARTH REF_FRAME = TEME TIME_SYSTEM = UTC MEAN_ELEMENT_THEORY = SGP/SGP4 EPOCH = 2026-09-10T23:47:02.683392 MEAN_MOTION = 1.00254283 ECCENTRICITY = .00572503 INCLINATION = 47.394 RA_OF_ASC_NODE = 270.7552 ARG_OF_PERICENTER = 216.2433 MEAN_ANOMALY = 325.9173 EPHEMERIS_TYPE = 0 CLASSIFICATION_TYPE = U NORAD_CAT_ID = 37256 ELEMENT_SET_NO = 999 REV_AT_EPOCH = 5765 BSTAR = 0 MEAN_MOTION_DOT = -.18100E-5 MEAN_MOTION_DDOT = 0 CCSDS_OMM_VERS = 2.0 CREATION_DATE = ORIGINATOR = OBJECT_NAME = BEIDOU-2 IGSO-3 (C08) OBJECT_ID = 2011-013A CENTER_NAME = EARTH REF_FRAME = TEME TIME_SYSTEM = UTC MEAN_ELEMENT_THEORY = SGP/SGP4 EPOCH = 2026-09-11T17:17:23.769600 MEAN_MOTION = 1.00292639 ECCENTRICITY = .0034682 INCLINATION = 62.5388 RA_OF_ASC_NODE = 39.3441 ARG_OF_PERICENTER = 183.6392 MEAN_ANOMALY = 132.993 EPHEMERIS_TYPE = 0 CLASSIFICATION_TYPE = U NORAD_CAT_ID = 37384 ELEMENT_SET_NO = 999 REV_AT_EPOCH = 5652 BSTAR = 0 MEAN_MOTION_DOT = -.17700E-5 MEAN_MOTION_DDOT = 0 CCSDS_OMM_VERS = 2.0 CREATION_DATE = ORIGINATOR = OBJECT_NAME = BEIDOU-2 IGSO-4 (C09) OBJECT_ID = 2011-038A CENTER_NAME = EARTH REF_FRAME = TEME TIME_SYSTEM = UTC MEAN_ELEMENT_THEORY = SGP/SGP4 EPOCH = 2026-09-10T19:39:11.817792 MEAN_MOTION = 1.0026828 ECCENTRICITY = .01603217 INCLINATION = 54.6025 RA_OF_ASC_NODE = 164.9115 ARG_OF_PERICENTER = 231.0094 MEAN_ANOMALY = 343.093 EPHEMERIS_TYPE = 0 CLASSIFICATION_TYPE = U NORAD_CAT_ID = 37763 ELEMENT_SET_NO = 999 REV_AT_EPOCH = 5550 BSTAR = 0 MEAN_MOTION_DOT = -.11400E-5 MEAN_MOTION_DDOT = 0 CCSDS_OMM_VERS = 2.0 CREATION_DATE = ORIGINATOR = OBJECT_NAME = BEIDOU-2 IGSO-5 (C10) OBJECT_ID = 2011-073A CENTER_NAME = EARTH REF_FRAME = TEME TIME_SYSTEM = UTC MEAN_ELEMENT_THEORY = SGP/SGP4 EPOCH = 2026-09-10T19:05:16.843776 MEAN_MOTION = 1.00279182 ECCENTRICITY = .01166519 INCLINATION = 47.5267 RA_OF_ASC_NODE = 270.4734 ARG_OF_PERICENTER = 224.1508 MEAN_ANOMALY = 237.27 EPHEMERIS_TYPE = 0 CLASSIFICATION_TYPE = U NORAD_CAT_ID = 37948 ELEMENT_SET_NO = 999 REV_AT_EPOCH = 5399 BSTAR = 0 MEAN_MOTION_DOT = -.16000E-5 MEAN_MOTION_DDOT = 0 CCSDS_OMM_VERS = 2.0 CREATION_DATE = ORIGINATOR = OBJECT_NAME = BEIDOU-2 G5 (C05) OBJECT_ID = 2012-008A CENTER_NAME = EARTH REF_FRAME = TEME TIME_SYSTEM = UTC MEAN_ELEMENT_THEORY = SGP/SGP4 EPOCH = 2026-09-12T03:55:09.217632 MEAN_MOTION = 1.00267637 ECCENTRICITY = .00068389 INCLINATION = 3.7859 RA_OF_ASC_NODE = 69.0679 ARG_OF_PERICENTER = 239.5091 MEAN_ANOMALY = 160.1264 EPHEMERIS_TYPE = 0 CLASSIFICATION_TYPE = U NORAD_CAT_ID = 38091 ELEMENT_SET_NO = 999 REV_AT_EPOCH = 5324 BSTAR = 0 MEAN_MOTION_DOT = .44000E-6 MEAN_MOTION_DDOT = 0 CCSDS_OMM_VERS = 2.0 CREATION_DATE = ORIGINATOR = OBJECT_NAME = BEIDOU-2 M3 (C11) OBJECT_ID = 2012-018A CENTER_NAME = EARTH REF_FRAME = TEME TIME_SYSTEM = UTC MEAN_ELEMENT_THEORY = SGP/SGP4 EPOCH = 2026-09-07T08:14:19.258080 MEAN_MOTION = 1.86229821 ECCENTRICITY = .00229055 INCLINATION = 55.6835 RA_OF_ASC_NODE = 302.1014 ARG_OF_PERICENTER = 272.4999 MEAN_ANOMALY = 87.3124 EPHEMERIS_TYPE = 0 CLASSIFICATION_TYPE = U NORAD_CAT_ID = 38250 ELEMENT_SET_NO = 999 REV_AT_EPOCH = 9747 BSTAR = 0 MEAN_MOTION_DOT = -.28000E-6 MEAN_MOTION_DDOT = 0 CCSDS_OMM_VERS = 2.0 CREATION_DATE = ORIGINATOR = OBJECT_NAME = BEIDOU-2 M4 (C12) OBJECT_ID = 2012-018B CENTER_NAME = EARTH REF_FRAME = TEME TIME_SYSTEM = UTC MEAN_ELEMENT_THEORY = SGP/SGP4 EPOCH = 2026-09-11T00:49:33.601152 MEAN_MOTION = 1.86229392 ECCENTRICITY = .00142245 INCLINATION = 55.5803 RA_OF_ASC_NODE = 301.183 ARG_OF_PERICENTER = 272.3678 MEAN_ANOMALY = 87.5423 EPHEMERIS_TYPE = 0 CLASSIFICATION_TYPE = U NORAD_CAT_ID = 38251 ELEMENT_SET_NO = 999 REV_AT_EPOCH = 9754 BSTAR = 0 MEAN_MOTION_DOT = -.49000E-6 MEAN_MOTION_DDOT = 0 CCSDS_OMM_VERS = 2.0 CREATION_DATE = ORIGINATOR = OBJECT_NAME = BEIDOU-2 M6 (C14) OBJECT_ID = 2012-050B CENTER_NAME = EARTH REF_FRAME = TEME TIME_SYSTEM = UTC MEAN_ELEMENT_THEORY = SGP/SGP4 EPOCH = 2026-09-11T19:37:15.397248 MEAN_MOTION = 1.86230878 ECCENTRICITY = .00110023 INCLINATION = 56.6242 RA_OF_ASC_NODE = 60.0343 ARG_OF_PERICENTER = 4.354 MEAN_ANOMALY = 355.6744 EPHEMERIS_TYPE = 0 CLASSIFICATION_TYPE = U NORAD_CAT_ID = 38775 ELEMENT_SET_NO = 999 REV_AT_EPOCH = 9492 BSTAR = 0 MEAN_MOTION_DOT = -.38000E-6 MEAN_MOTION_DDOT = 0 CCSDS_OMM_VERS = 2.0 CREATION_DATE = ORIGINATOR = OBJECT_NAME = BEIDOU-2 G6 (C02) OBJECT_ID = 2012-059A CENTER_NAME = EARTH REF_FRAME = TEME TIME_SYSTEM = UTC MEAN_ELEMENT_THEORY = SGP/SGP4 EPOCH = 2026-09-12T02:19:48.360864 MEAN_MOTION = 1.00270221 ECCENTRICITY = .00068483 INCLINATION = 4.6364 RA_OF_ASC_NODE = 72.5336 ARG_OF_PERICENTER = 323.5617 MEAN_ANOMALY = 73.9929 EPHEMERIS_TYPE = 0 CLASSIFICATION_TYPE = U NORAD_CAT_ID = 38953 ELEMENT_SET_NO = 999 REV_AT_EPOCH = 5078 BSTAR = 0 MEAN_MOTION_DOT = -.18800E-5 MEAN_MOTION_DDOT = 0 CCSDS_OMM_VERS = 2.0 CREATION_DATE = ORIGINATOR = OBJECT_NAME = BEIDOU-3S IGSO-1S (C31) OBJECT_ID = 2015-019A CENTER_NAME = EARTH REF_FRAME = TEME TIME_SYSTEM = UTC MEAN_ELEMENT_THEORY = SGP/SGP4 EPOCH = 2026-09-10T17:01:05.504736 MEAN_MOTION = 1.00288273 ECCENTRICITY = .00387109 INCLINATION = 49.0313 RA_OF_ASC_NODE = 294.4241 ARG_OF_PERICENTER = 200.3707 MEAN_ANOMALY = 205.9134 EPHEMERIS_TYPE = 0 CLASSIFICATION_TYPE = U NORAD_CAT_ID = 40549 ELEMENT_SET_NO = 999 REV_AT_EPOCH = 4193 BSTAR = 0 MEAN_MOTION_DOT = -.16200E-5 MEAN_MOTION_DDOT = 0 CCSDS_OMM_VERS = 2.0 CREATION_DATE = ORIGINATOR = OBJECT_NAME = BEIDOU-3S M2S (C58) OBJECT_ID = 2015-037A CENTER_NAME = EARTH REF_FRAME = TEME TIME_SYSTEM = UTC MEAN_ELEMENT_THEORY = SGP/SGP4 EPOCH = 2026-09-11T05:38:53.800224 MEAN_MOTION = 1.86231926 ECCENTRICITY = .00116246 INCLINATION = 54.7915 RA_OF_ASC_NODE = 299.0777 ARG_OF_PERICENTER = 259.4932 MEAN_ANOMALY = 100.4462 EPHEMERIS_TYPE = 0 CLASSIFICATION_TYPE = U NORAD_CAT_ID = 40748 ELEMENT_SET_NO = 999 REV_AT_EPOCH = 7572 BSTAR = 0 MEAN_MOTION_DOT = -.49000E-6 MEAN_MOTION_DDOT = 0 CCSDS_OMM_VERS = 2.0 CREATION_DATE = ORIGINATOR = OBJECT_NAME = BEIDOU-3S M1S (C57) OBJECT_ID = 2015-037B CENTER_NAME = EARTH REF_FRAME = TEME TIME_SYSTEM = UTC MEAN_ELEMENT_THEORY = SGP/SGP4 EPOCH = 2026-09-09T06:49:57.474336 MEAN_MOTION = 1.86254857 ECCENTRICITY = .000181 INCLINATION = 54.7897 RA_OF_ASC_NODE = 299.1308 ARG_OF_PERICENTER = 48.383 MEAN_ANOMALY = 311.7068 EPHEMERIS_TYPE = 0 CLASSIFICATION_TYPE = U NORAD_CAT_ID = 40749 ELEMENT_SET_NO = 999 REV_AT_EPOCH = 7569 BSTAR = 0 MEAN_MOTION_DOT = -.34000E-6 MEAN_MOTION_DDOT = 0 CCSDS_OMM_VERS = 2.0 CREATION_DATE = ORIGINATOR = OBJECT_NAME = BEIDOU-3S IGSO-2S (C56) OBJECT_ID = 2015-053A CENTER_NAME = EARTH REF_FRAME = TEME TIME_SYSTEM = UTC MEAN_ELEMENT_THEORY = SGP/SGP4 EPOCH = 2026-09-10T23:03:27.860832 MEAN_MOTION = 1.00285074 ECCENTRICITY = .0065681 INCLINATION = 49.0947 RA_OF_ASC_NODE = 257.7528 ARG_OF_PERICENTER = 192.4722 MEAN_ANOMALY = 341.2961 EPHEMERIS_TYPE = 0 CLASSIFICATION_TYPE = U NORAD_CAT_ID = 40938 ELEMENT_SET_NO = 999 REV_AT_EPOCH = 4021 BSTAR = 0 MEAN_MOTION_DOT = -.12400E-5 MEAN_MOTION_DDOT = 0 CCSDS_OMM_VERS = 2.0 CREATION_DATE = ORIGINATOR = OBJECT_NAME = BEIDOU-2 IGSO-6 (C13) OBJECT_ID = 2016-021A CENTER_NAME = EARTH REF_FRAME = TEME TIME_SYSTEM = UTC MEAN_ELEMENT_THEORY = SGP/SGP4 EPOCH = 2026-09-11T20:43:38.603136 MEAN_MOTION = 1.00282549 ECCENTRICITY = .0061604 INCLINATION = 60.3547 RA_OF_ASC_NODE = 37.1827 ARG_OF_PERICENTER = 228.2411 MEAN_ANOMALY = 132.6997 EPHEMERIS_TYPE = 0 CLASSIFICATION_TYPE = U NORAD_CAT_ID = 41434 ELEMENT_SET_NO = 999 REV_AT_EPOCH = 3835 BSTAR = 0 MEAN_MOTION_DOT = -.16200E-5 MEAN_MOTION_DDOT = 0 CCSDS_OMM_VERS = 2.0 CREATION_DATE = ORIGINATOR = OBJECT_NAME = BEIDOU-2 G7 (C03) OBJECT_ID = 2016-037A CENTER_NAME = EARTH REF_FRAME = TEME TIME_SYSTEM = UTC MEAN_ELEMENT_THEORY = SGP/SGP4 EPOCH = 2026-09-12T07:35:10.620096 MEAN_MOTION = 1.00275942 ECCENTRICITY = .00051662 INCLINATION = 1.9316 RA_OF_ASC_NODE = 69.6659 ARG_OF_PERICENTER = 352.1556 MEAN_ANOMALY = 153.8063 EPHEMERIS_TYPE = 0 CLASSIFICATION_TYPE = U NORAD_CAT_ID = 41586 ELEMENT_SET_NO = 999 REV_AT_EPOCH = 776 BSTAR = 0 MEAN_MOTION_DOT = -.36700E-5 MEAN_MOTION_DDOT = 0 CCSDS_OMM_VERS = 2.0 CREATION_DATE = ORIGINATOR = OBJECT_NAME = BEIDOU-3 M1 (C19) OBJECT_ID = 2017-069A CENTER_NAME = EARTH REF_FRAME = TEME TIME_SYSTEM = UTC MEAN_ELEMENT_THEORY = SGP/SGP4 EPOCH = 2026-09-09T23:19:40.299744 MEAN_MOTION = 1.86231101 ECCENTRICITY = .0007331 INCLINATION = 56.7701 RA_OF_ASC_NODE = 60.2963 ARG_OF_PERICENTER = 324.136 MEAN_ANOMALY = 35.8435 EPHEMERIS_TYPE = 0 CLASSIFICATION_TYPE = U NORAD_CAT_ID = 43001 ELEMENT_SET_NO = 999 REV_AT_EPOCH = 6018 BSTAR = 0 MEAN_MOTION_DOT = -.20000E-6 MEAN_MOTION_DDOT = 0 CCSDS_OMM_VERS = 2.0 CREATION_DATE = ORIGINATOR = OBJECT_NAME = BEIDOU-3 M2 (C20) OBJECT_ID = 2017-069B CENTER_NAME = EARTH REF_FRAME = TEME TIME_SYSTEM = UTC MEAN_ELEMENT_THEORY = SGP/SGP4 EPOCH = 2026-09-12T01:24:37.751328 MEAN_MOTION = 1.86230429 ECCENTRICITY = .00062789 INCLINATION = 56.7708 RA_OF_ASC_NODE = 60.2633 ARG_OF_PERICENTER = 3.969 MEAN_ANOMALY = 356.0541 EPHEMERIS_TYPE = 0 CLASSIFICATION_TYPE = U NORAD_CAT_ID = 43002 ELEMENT_SET_NO = 999 REV_AT_EPOCH = 6021 BSTAR = 0 MEAN_MOTION_DOT = -.39000E-6 MEAN_MOTION_DDOT = 0 CCSDS_OMM_VERS = 2.0 CREATION_DATE = ORIGINATOR = OBJECT_NAME = BEIDOU-3 M7 (C27) OBJECT_ID = 2018-003A CENTER_NAME = EARTH REF_FRAME = TEME TIME_SYSTEM = UTC MEAN_ELEMENT_THEORY = SGP/SGP4 EPOCH = 2026-09-11T19:13:40.274112 MEAN_MOTION = 1.86227896 ECCENTRICITY = .00032103 INCLINATION = 54.2473 RA_OF_ASC_NODE = 299.2879 ARG_OF_PERICENTER = 105.5565 MEAN_ANOMALY = 254.5469 EPHEMERIS_TYPE = 0 CLASSIFICATION_TYPE = U NORAD_CAT_ID = 43107 ELEMENT_SET_NO = 999 REV_AT_EPOCH = 5896 BSTAR = 0 MEAN_MOTION_DOT = -.55000E-6 MEAN_MOTION_DDOT = 0 CCSDS_OMM_VERS = 2.0 CREATION_DATE = ORIGINATOR = OBJECT_NAME = BEIDOU-3 M8 (C28) OBJECT_ID = 2018-003B CENTER_NAME = EARTH REF_FRAME = TEME TIME_SYSTEM = UTC MEAN_ELEMENT_THEORY = SGP/SGP4 EPOCH = 2026-09-11T04:58:59.402208 MEAN_MOTION = 1.86230841 ECCENTRICITY = .00042014 INCLINATION = 54.2406 RA_OF_ASC_NODE = 299.29 ARG_OF_PERICENTER = 261.2655 MEAN_ANOMALY = 98.7568 EPHEMERIS_TYPE = 0 CLASSIFICATION_TYPE = U NORAD_CAT_ID = 43108 ELEMENT_SET_NO = 999 REV_AT_EPOCH = 5896 BSTAR = 0 MEAN_MOTION_DOT = -.51000E-6 MEAN_MOTION_DDOT = 0 CCSDS_OMM_VERS = 2.0 CREATION_DATE = ORIGINATOR = OBJECT_NAME = BEIDOU-3 M4 (C22) OBJECT_ID = 2018-018A CENTER_NAME = EARTH REF_FRAME = TEME TIME_SYSTEM = UTC MEAN_ELEMENT_THEORY = SGP/SGP4 EPOCH = 2026-09-11T15:37:39.675360 MEAN_MOTION = 1.86231004 ECCENTRICITY = .0006048 INCLINATION = 56.7296 RA_OF_ASC_NODE = 60.3017 ARG_OF_PERICENTER = 42.6888 MEAN_ANOMALY = 317.3783 EPHEMERIS_TYPE = 0 CLASSIFICATION_TYPE = U NORAD_CAT_ID = 43207 ELEMENT_SET_NO = 999 REV_AT_EPOCH = 5835 BSTAR = 0 MEAN_MOTION_DOT = -.36000E-6 MEAN_MOTION_DDOT = 0 CCSDS_OMM_VERS = 2.0 CREATION_DATE = ORIGINATOR = OBJECT_NAME = BEIDOU-3 M3 (C21) OBJECT_ID = 2018-018B CENTER_NAME = EARTH REF_FRAME = TEME TIME_SYSTEM = UTC MEAN_ELEMENT_THEORY = SGP/SGP4 EPOCH = 2026-09-11T17:13:26.128992 MEAN_MOTION = 1.86230771 ECCENTRICITY = .00054068 INCLINATION = 56.7302 RA_OF_ASC_NODE = 60.3038 ARG_OF_PERICENTER = 347.6353 MEAN_ANOMALY = 12.3712 EPHEMERIS_TYPE = 0 CLASSIFICATION_TYPE = U NORAD_CAT_ID = 43208 ELEMENT_SET_NO = 999 REV_AT_EPOCH = 5835 BSTAR = 0 MEAN_MOTION_DOT = -.36000E-6 MEAN_MOTION_DDOT = 0 CCSDS_OMM_VERS = 2.0 CREATION_DATE = ORIGINATOR = OBJECT_NAME = BEIDOU-3 M9 (C29) OBJECT_ID = 2018-029A CENTER_NAME = EARTH REF_FRAME = TEME TIME_SYSTEM = UTC MEAN_ELEMENT_THEORY = SGP/SGP4 EPOCH = 2026-09-11T09:34:48.423648 MEAN_MOTION = 1.86228302 ECCENTRICITY = .00017167 INCLINATION = 54.113 RA_OF_ASC_NODE = 296.9256 ARG_OF_PERICENTER = 233.1525 MEAN_ANOMALY = 126.8995 EPHEMERIS_TYPE = 0 CLASSIFICATION_TYPE = U NORAD_CAT_ID = 43245 ELEMENT_SET_NO = 999 REV_AT_EPOCH = 5750 BSTAR = 0 MEAN_MOTION_DOT = -.49000E-6 MEAN_MOTION_DDOT = 0 CCSDS_OMM_VERS = 2.0 CREATION_DATE = ORIGINATOR = OBJECT_NAME = BEIDOU-3 M10 (C30) OBJECT_ID = 2018-029B CENTER_NAME = EARTH REF_FRAME = TEME TIME_SYSTEM = UTC MEAN_ELEMENT_THEORY = SGP/SGP4 EPOCH = 2026-09-11T07:59:39.179040 MEAN_MOTION = 1.86229002 ECCENTRICITY = .00026418 INCLINATION = 54.1108 RA_OF_ASC_NODE = 296.9552 ARG_OF_PERICENTER = 17.4348 MEAN_ANOMALY = 342.6422 EPHEMERIS_TYPE = 0 CLASSIFICATION_TYPE = U NORAD_CAT_ID = 43246 ELEMENT_SET_NO = 999 REV_AT_EPOCH = 5748 BSTAR = 0 MEAN_MOTION_DOT = -.48000E-6 MEAN_MOTION_DDOT = 0 CCSDS_OMM_VERS = 2.0 CREATION_DATE = ORIGINATOR = OBJECT_NAME = BEIDOU-2 IGSO-7 (C16) OBJECT_ID = 2018-057A CENTER_NAME = EARTH REF_FRAME = TEME TIME_SYSTEM = UTC MEAN_ELEMENT_THEORY = SGP/SGP4 EPOCH = 2026-09-11T13:07:24.382272 MEAN_MOTION = 1.00277412 ECCENTRICITY = .01079807 INCLINATION = 55.213 RA_OF_ASC_NODE = 162.3239 ARG_OF_PERICENTER = 236.7833 MEAN_ANOMALY = 260.8322 EPHEMERIS_TYPE = 0 CLASSIFICATION_TYPE = U NORAD_CAT_ID = 43539 ELEMENT_SET_NO = 999 REV_AT_EPOCH = 2999 BSTAR = 0 MEAN_MOTION_DOT = -.16000E-5 MEAN_MOTION_DDOT = 0 CCSDS_OMM_VERS = 2.0 CREATION_DATE = ORIGINATOR = OBJECT_NAME = BEIDOU-3 M5 (C23) OBJECT_ID = 2018-062A CENTER_NAME = EARTH REF_FRAME = TEME TIME_SYSTEM = UTC MEAN_ELEMENT_THEORY = SGP/SGP4 EPOCH = 2026-09-11T13:22:02.711712 MEAN_MOTION = 1.86228716 ECCENTRICITY = .00041089 INCLINATION = 54.0829 RA_OF_ASC_NODE = 179.3693 ARG_OF_PERICENTER = 311.4726 MEAN_ANOMALY = 48.4906 EPHEMERIS_TYPE = 0 CLASSIFICATION_TYPE = U NORAD_CAT_ID = 43581 ELEMENT_SET_NO = 999 REV_AT_EPOCH = 5524 BSTAR = 0 MEAN_MOTION_DOT = -.80000E-7 MEAN_MOTION_DDOT = 0 CCSDS_OMM_VERS = 2.0 CREATION_DATE = ORIGINATOR = OBJECT_NAME = BEIDOU-3 M6 (C24) OBJECT_ID = 2018-062B CENTER_NAME = EARTH REF_FRAME = TEME TIME_SYSTEM = UTC MEAN_ELEMENT_THEORY = SGP/SGP4 EPOCH = 2026-09-10T21:12:43.171200 MEAN_MOTION = 1.86228127 ECCENTRICITY = .00064136 INCLINATION = 54.0824 RA_OF_ASC_NODE = 179.3813 ARG_OF_PERICENTER = 28.3297 MEAN_ANOMALY = 331.6991 EPHEMERIS_TYPE = 0 CLASSIFICATION_TYPE = U NORAD_CAT_ID = 43582 ELEMENT_SET_NO = 999 REV_AT_EPOCH = 5523 BSTAR = 0 MEAN_MOTION_DOT = -.15000E-6 MEAN_MOTION_DDOT = 0 CCSDS_OMM_VERS = 2.0 CREATION_DATE = ORIGINATOR = OBJECT_NAME = BEIDOU-3 M12 (C26) OBJECT_ID = 2018-067A CENTER_NAME = EARTH REF_FRAME = TEME TIME_SYSTEM = UTC MEAN_ELEMENT_THEORY = SGP/SGP4 EPOCH = 2026-09-10T19:44:14.425152 MEAN_MOTION = 1.86227478 ECCENTRICITY = .00086844 INCLINATION = 54.1788 RA_OF_ASC_NODE = 178.1378 ARG_OF_PERICENTER = 35.7772 MEAN_ANOMALY = 324.2772 EPHEMERIS_TYPE = 0 CLASSIFICATION_TYPE = U NORAD_CAT_ID = 43602 ELEMENT_SET_NO = 999 REV_AT_EPOCH = 5471 BSTAR = 0 MEAN_MOTION_DOT = -.15000E-6 MEAN_MOTION_DDOT = 0 CCSDS_OMM_VERS = 2.0 CREATION_DATE = ORIGINATOR = OBJECT_NAME = BEIDOU-3 M11 (C25) OBJECT_ID = 2018-067B CENTER_NAME = EARTH REF_FRAME = TEME TIME_SYSTEM = UTC MEAN_ELEMENT_THEORY = SGP/SGP4 EPOCH = 2026-09-12T00:45:32.086368 MEAN_MOTION = 1.8622694 ECCENTRICITY = .00052237 INCLINATION = 54.1757 RA_OF_ASC_NODE = 178.0602 ARG_OF_PERICENTER = 24.7633 MEAN_ANOMALY = 335.2664 EPHEMERIS_TYPE = 0 CLASSIFICATION_TYPE = U NORAD_CAT_ID = 43603 ELEMENT_SET_NO = 999 REV_AT_EPOCH = 5476 BSTAR = 0 MEAN_MOTION_DOT = -.20000E-7 MEAN_MOTION_DDOT = 0 CCSDS_OMM_VERS = 2.0 CREATION_DATE = ORIGINATOR = OBJECT_NAME = BEIDOU-3 M13 (C32) OBJECT_ID = 2018-072A CENTER_NAME = EARTH REF_FRAME = TEME TIME_SYSTEM = UTC MEAN_ELEMENT_THEORY = SGP/SGP4 EPOCH = 2026-09-11T23:39:18.730080 MEAN_MOTION = 1.8623081 ECCENTRICITY = .00041801 INCLINATION = 56.7046 RA_OF_ASC_NODE = 59.7997 ARG_OF_PERICENTER = 330.4364 MEAN_ANOMALY = 29.5577 EPHEMERIS_TYPE = 0 CLASSIFICATION_TYPE = U NORAD_CAT_ID = 43622 ELEMENT_SET_NO = 999 REV_AT_EPOCH = 5427 BSTAR = 0 MEAN_MOTION_DOT = -.40000E-6 MEAN_MOTION_DDOT = 0 CCSDS_OMM_VERS = 2.0 CREATION_DATE = ORIGINATOR = OBJECT_NAME = BEIDOU-3 M14 (C33) OBJECT_ID = 2018-072B CENTER_NAME = EARTH REF_FRAME = TEME TIME_SYSTEM = UTC MEAN_ELEMENT_THEORY = SGP/SGP4 EPOCH = 2026-09-11T20:25:30.706176 MEAN_MOTION = 1.86230892 ECCENTRICITY = .00038643 INCLINATION = 56.7062 RA_OF_ASC_NODE = 59.7985 ARG_OF_PERICENTER = 24.7605 MEAN_ANOMALY = 335.2765 EPHEMERIS_TYPE = 0 CLASSIFICATION_TYPE = U NORAD_CAT_ID = 43623 ELEMENT_SET_NO = 999 REV_AT_EPOCH = 5426 BSTAR = 0 MEAN_MOTION_DOT = -.39000E-6 MEAN_MOTION_DDOT = 0 CCSDS_OMM_VERS = 2.0 CREATION_DATE = ORIGINATOR = OBJECT_NAME = BEIDOU-3 M16 (C35) OBJECT_ID = 2018-078A CENTER_NAME = EARTH REF_FRAME = TEME TIME_SYSTEM = UTC MEAN_ELEMENT_THEORY = SGP/SGP4 EPOCH = 2026-09-10T22:21:05.738688 MEAN_MOTION = 1.86232315 ECCENTRICITY = .0006056 INCLINATION = 54.0096 RA_OF_ASC_NODE = 296.9723 ARG_OF_PERICENTER = 32.3821 MEAN_ANOMALY = 327.7243 EPHEMERIS_TYPE = 0 CLASSIFICATION_TYPE = U NORAD_CAT_ID = 43647 ELEMENT_SET_NO = 999 REV_AT_EPOCH = 5375 BSTAR = 0 MEAN_MOTION_DOT = -.45000E-6 MEAN_MOTION_DDOT = 0 CCSDS_OMM_VERS = 2.0 CREATION_DATE = ORIGINATOR = OBJECT_NAME = BEIDOU-3 M15 (C34) OBJECT_ID = 2018-078B CENTER_NAME = EARTH REF_FRAME = TEME TIME_SYSTEM = UTC MEAN_ELEMENT_THEORY = SGP/SGP4 EPOCH = 2026-09-11T14:22:17.234112 MEAN_MOTION = 1.8622747 ECCENTRICITY = .00026591 INCLINATION = 54.0047 RA_OF_ASC_NODE = 296.9488 ARG_OF_PERICENTER = 38.7743 MEAN_ANOMALY = 321.3116 EPHEMERIS_TYPE = 0 CLASSIFICATION_TYPE = U NORAD_CAT_ID = 43648 ELEMENT_SET_NO = 999 REV_AT_EPOCH = 5378 BSTAR = 0 MEAN_MOTION_DOT = -.50000E-6 MEAN_MOTION_DDOT = 0 CCSDS_OMM_VERS = 2.0 CREATION_DATE = ORIGINATOR = OBJECT_NAME = BEIDOU-3 G1 (C59) OBJECT_ID = 2018-085A CENTER_NAME = EARTH REF_FRAME = TEME TIME_SYSTEM = UTC MEAN_ELEMENT_THEORY = SGP/SGP4 EPOCH = 2026-09-12T07:32:21.605280 MEAN_MOTION = 1.00271639 ECCENTRICITY = .00059599 INCLINATION = 2.6093 RA_OF_ASC_NODE = 94.9051 ARG_OF_PERICENTER = 21.2547 MEAN_ANOMALY = 148.3193 EPHEMERIS_TYPE = 0 CLASSIFICATION_TYPE = U NORAD_CAT_ID = 43683 ELEMENT_SET_NO = 999 REV_AT_EPOCH = 2893 BSTAR = 0 MEAN_MOTION_DOT = -.12200E-5 MEAN_MOTION_DDOT = 0 CCSDS_OMM_VERS = 2.0 CREATION_DATE = ORIGINATOR = OBJECT_NAME = BEIDOU-3 M17 (C36) OBJECT_ID = 2018-093A CENTER_NAME = EARTH REF_FRAME = TEME TIME_SYSTEM = UTC MEAN_ELEMENT_THEORY = SGP/SGP4 EPOCH = 2026-09-11T10:02:12.634656 MEAN_MOTION = 1.86228307 ECCENTRICITY = .0008617 INCLINATION = 54.1662 RA_OF_ASC_NODE = 179.3727 ARG_OF_PERICENTER = 302.864 MEAN_ANOMALY = 187.5989 EPHEMERIS_TYPE = 0 CLASSIFICATION_TYPE = U NORAD_CAT_ID = 43706 ELEMENT_SET_NO = 999 REV_AT_EPOCH = 5314 BSTAR = 0 MEAN_MOTION_DOT = -.90000E-7 MEAN_MOTION_DDOT = 0 CCSDS_OMM_VERS = 2.0 CREATION_DATE = ORIGINATOR = OBJECT_NAME = BEIDOU-3 M18 (C37) OBJECT_ID = 2018-093B CENTER_NAME = EARTH REF_FRAME = TEME TIME_SYSTEM = UTC MEAN_ELEMENT_THEORY = SGP/SGP4 EPOCH = 2026-09-12T03:52:46.892640 MEAN_MOTION = 1.86226659 ECCENTRICITY = .00074767 INCLINATION = 54.167 RA_OF_ASC_NODE = 179.3395 ARG_OF_PERICENTER = 338.2296 MEAN_ANOMALY = 21.7414 EPHEMERIS_TYPE = 0 CLASSIFICATION_TYPE = U NORAD_CAT_ID = 43707 ELEMENT_SET_NO = 999 REV_AT_EPOCH = 5315 BSTAR = 0 MEAN_MOTION_DOT = -.20000E-7 MEAN_MOTION_DDOT = 0 CCSDS_OMM_VERS = 2.0 CREATION_DATE = ORIGINATOR = OBJECT_NAME = BEIDOU-3 IGSO-1 (C38) OBJECT_ID = 2019-023A CENTER_NAME = EARTH REF_FRAME = TEME TIME_SYSTEM = UTC MEAN_ELEMENT_THEORY = SGP/SGP4 EPOCH = 2026-09-07T17:44:03.010272 MEAN_MOTION = 1.0026721 ECCENTRICITY = .0027421 INCLINATION = 58.8141 RA_OF_ASC_NODE = 36.8058 ARG_OF_PERICENTER = 223.4639 MEAN_ANOMALY = 111.5661 EPHEMERIS_TYPE = 0 CLASSIFICATION_TYPE = U NORAD_CAT_ID = 44204 ELEMENT_SET_NO = 999 REV_AT_EPOCH = 803 BSTAR = 0 MEAN_MOTION_DOT = -.20100E-5 MEAN_MOTION_DDOT = 0 CCSDS_OMM_VERS = 2.0 CREATION_DATE = ORIGINATOR = OBJECT_NAME = BEIDOU-2 G8 (C01) OBJECT_ID = 2019-027A CENTER_NAME = EARTH REF_FRAME = TEME TIME_SYSTEM = UTC MEAN_ELEMENT_THEORY = SGP/SGP4 EPOCH = 2026-09-12T07:44:54.685824 MEAN_MOTION = 1.00272032 ECCENTRICITY = .00090495 INCLINATION = 1.8738 RA_OF_ASC_NODE = 74.3172 ARG_OF_PERICENTER = 278.0738 MEAN_ANOMALY = 259.7237 EPHEMERIS_TYPE = 0 CLASSIFICATION_TYPE = U NORAD_CAT_ID = 44231 ELEMENT_SET_NO = 999 REV_AT_EPOCH = 2695 BSTAR = 0 MEAN_MOTION_DOT = -.26000E-5 MEAN_MOTION_DDOT = 0 CCSDS_OMM_VERS = 2.0 CREATION_DATE = ORIGINATOR = OBJECT_NAME = BEIDOU-3 IGSO-2 (C39) OBJECT_ID = 2019-035A CENTER_NAME = EARTH REF_FRAME = TEME TIME_SYSTEM = UTC MEAN_ELEMENT_THEORY = SGP/SGP4 EPOCH = 2026-09-11T10:59:48.652800 MEAN_MOTION = 1.00273492 ECCENTRICITY = .00386525 INCLINATION = 55.2503 RA_OF_ASC_NODE = 158.1052 ARG_OF_PERICENTER = 211.3311 MEAN_ANOMALY = 265.786 EPHEMERIS_TYPE = 0 CLASSIFICATION_TYPE = U NORAD_CAT_ID = 44337 ELEMENT_SET_NO = 999 REV_AT_EPOCH = 2653 BSTAR = 0 MEAN_MOTION_DOT = -.15500E-5 MEAN_MOTION_DDOT = 0 CCSDS_OMM_VERS = 2.0 CREATION_DATE = ORIGINATOR = OBJECT_NAME = BEIDOU-3 M24 (C46) OBJECT_ID = 2019-061A CENTER_NAME = EARTH REF_FRAME = TEME TIME_SYSTEM = UTC MEAN_ELEMENT_THEORY = SGP/SGP4 EPOCH = 2026-09-10T01:57:00.737856 MEAN_MOTION = 1.86229234 ECCENTRICITY = .00091736 INCLINATION = 54.3942 RA_OF_ASC_NODE = 179.8664 ARG_OF_PERICENTER = 11.0844 MEAN_ANOMALY = 348.9243 EPHEMERIS_TYPE = 0 CLASSIFICATION_TYPE = U NORAD_CAT_ID = 44542 ELEMENT_SET_NO = 999 REV_AT_EPOCH = 4737 BSTAR = 0 MEAN_MOTION_DOT = -.24000E-6 MEAN_MOTION_DDOT = 0 CCSDS_OMM_VERS = 2.0 CREATION_DATE = ORIGINATOR = OBJECT_NAME = BEIDOU-3 M23 (C45) OBJECT_ID = 2019-061B CENTER_NAME = EARTH REF_FRAME = TEME TIME_SYSTEM = UTC MEAN_ELEMENT_THEORY = SGP/SGP4 EPOCH = 2026-09-10T11:52:23.318976 MEAN_MOTION = 1.862277 ECCENTRICITY = .00060428 INCLINATION = 54.3922 RA_OF_ASC_NODE = 179.8209 ARG_OF_PERICENTER = 0.0624 MEAN_ANOMALY = 188.1997 EPHEMERIS_TYPE = 0 CLASSIFICATION_TYPE = U NORAD_CAT_ID = 44543 ELEMENT_SET_NO = 999 REV_AT_EPOCH = 4738 BSTAR = 0 MEAN_MOTION_DOT = -.20000E-6 MEAN_MOTION_DDOT = 0 CCSDS_OMM_VERS = 2.0 CREATION_DATE = ORIGINATOR = OBJECT_NAME = BEIDOU-3 IGSO-3 (C40) OBJECT_ID = 2019-073A CENTER_NAME = EARTH REF_FRAME = TEME TIME_SYSTEM = UTC MEAN_ELEMENT_THEORY = SGP/SGP4 EPOCH = 2026-09-11T11:21:00.152352 MEAN_MOTION = 1.0026408 ECCENTRICITY = .00468467 INCLINATION = 54.6556 RA_OF_ASC_NODE = 279.957 ARG_OF_PERICENTER = 198.0806 MEAN_ANOMALY = 161.8102 EPHEMERIS_TYPE = 0 CLASSIFICATION_TYPE = U NORAD_CAT_ID = 44709 ELEMENT_SET_NO = 999 REV_AT_EPOCH = 2532 BSTAR = 0 MEAN_MOTION_DOT = -.16600E-5 MEAN_MOTION_DDOT = 0 CCSDS_OMM_VERS = 2.0 CREATION_DATE = ORIGINATOR = OBJECT_NAME = BEIDOU-3 M22 (C44) OBJECT_ID = 2019-078A CENTER_NAME = EARTH REF_FRAME = TEME TIME_SYSTEM = UTC MEAN_ELEMENT_THEORY = SGP/SGP4 EPOCH = 2026-09-11T12:47:45.201984 MEAN_MOTION = 1.86227049 ECCENTRICITY = .00048404 INCLINATION = 53.8546 RA_OF_ASC_NODE = 296.7826 ARG_OF_PERICENTER = 42.9059 MEAN_ANOMALY = 317.1987 EPHEMERIS_TYPE = 0 CLASSIFICATION_TYPE = U NORAD_CAT_ID = 44793 ELEMENT_SET_NO = 999 REV_AT_EPOCH = 4625 BSTAR = 0 MEAN_MOTION_DOT = -.50000E-6 MEAN_MOTION_DDOT = 0 CCSDS_OMM_VERS = 2.0 CREATION_DATE = ORIGINATOR = OBJECT_NAME = BEIDOU-3 M21 (C43) OBJECT_ID = 2019-078B CENTER_NAME = EARTH REF_FRAME = TEME TIME_SYSTEM = UTC MEAN_ELEMENT_THEORY = SGP/SGP4 EPOCH = 2026-09-11T03:15:42.039936 MEAN_MOTION = 1.86227553 ECCENTRICITY = .00027356 INCLINATION = 53.8284 RA_OF_ASC_NODE = 296.7562 ARG_OF_PERICENTER = 33.9992 MEAN_ANOMALY = 326.0864 EPHEMERIS_TYPE = 0 CLASSIFICATION_TYPE = U NORAD_CAT_ID = 44794 ELEMENT_SET_NO = 999 REV_AT_EPOCH = 4625 BSTAR = 0 MEAN_MOTION_DOT = -.47000E-6 MEAN_MOTION_DDOT = 0 CCSDS_OMM_VERS = 2.0 CREATION_DATE = ORIGINATOR = OBJECT_NAME = BEIDOU-3 M19 (C41) OBJECT_ID = 2019-090A CENTER_NAME = EARTH REF_FRAME = TEME TIME_SYSTEM = UTC MEAN_ELEMENT_THEORY = SGP/SGP4 EPOCH = 2026-09-11T09:03:23.953248 MEAN_MOTION = 1.86231354 ECCENTRICITY = .00157674 INCLINATION = 56.6386 RA_OF_ASC_NODE = 59.9456 ARG_OF_PERICENTER = 292.8904 MEAN_ANOMALY = 67.0484 EPHEMERIS_TYPE = 0 CLASSIFICATION_TYPE = U NORAD_CAT_ID = 44864 ELEMENT_SET_NO = 999 REV_AT_EPOCH = 4583 BSTAR = 0 MEAN_MOTION_DOT = -.34000E-6 MEAN_MOTION_DDOT = 0 CCSDS_OMM_VERS = 2.0 CREATION_DATE = ORIGINATOR = OBJECT_NAME = BEIDOU-3 M20 (C42) OBJECT_ID = 2019-090B CENTER_NAME = EARTH REF_FRAME = TEME TIME_SYSTEM = UTC MEAN_ELEMENT_THEORY = SGP/SGP4 EPOCH = 2026-09-09T02:16:43.229856 MEAN_MOTION = 1.86231127 ECCENTRICITY = .00130536 INCLINATION = 56.6383 RA_OF_ASC_NODE = 60.0563 ARG_OF_PERICENTER = 308.9371 MEAN_ANOMALY = 50.3333 EPHEMERIS_TYPE = 0 CLASSIFICATION_TYPE = U NORAD_CAT_ID = 44865 ELEMENT_SET_NO = 999 REV_AT_EPOCH = 4577 BSTAR = 0 MEAN_MOTION_DOT = -.13000E-6 MEAN_MOTION_DDOT = 0 CCSDS_OMM_VERS = 2.0 CREATION_DATE = ORIGINATOR = OBJECT_NAME = BEIDOU-3 G2 (C60) OBJECT_ID = 2020-017A CENTER_NAME = EARTH REF_FRAME = TEME TIME_SYSTEM = UTC MEAN_ELEMENT_THEORY = SGP/SGP4 EPOCH = 2026-09-12T04:01:01.155072 MEAN_MOTION = 1.00272263 ECCENTRICITY = .0002124 INCLINATION = 2.5806 RA_OF_ASC_NODE = 48.3907 ARG_OF_PERICENTER = 131.9601 MEAN_ANOMALY = 311.1309 EPHEMERIS_TYPE = 0 CLASSIFICATION_TYPE = U NORAD_CAT_ID = 45344 ELEMENT_SET_NO = 999 REV_AT_EPOCH = 2413 BSTAR = 0 MEAN_MOTION_DOT = -.15300E-5 MEAN_MOTION_DDOT = 0 CCSDS_OMM_VERS = 2.0 CREATION_DATE = ORIGINATOR = OBJECT_NAME = BEIDOU-3 G3 (C61) OBJECT_ID = 2020-040A CENTER_NAME = EARTH REF_FRAME = TEME TIME_SYSTEM = UTC MEAN_ELEMENT_THEORY = SGP/SGP4 EPOCH = 2026-09-12T07:35:10.620096 MEAN_MOTION = 1.00269676 ECCENTRICITY = .00026444 INCLINATION = 2.6569 RA_OF_ASC_NODE = 67.4129 ARG_OF_PERICENTER = 281.4958 MEAN_ANOMALY = 226.759 EPHEMERIS_TYPE = 0 CLASSIFICATION_TYPE = U NORAD_CAT_ID = 45807 ELEMENT_SET_NO = 999 REV_AT_EPOCH = 2294 BSTAR = 0 MEAN_MOTION_DOT = -.36700E-5 MEAN_MOTION_DDOT = 0 CCSDS_OMM_VERS = 2.0 CREATION_DATE = ORIGINATOR = OBJECT_NAME = BEIDOU-3 G4 (C62) OBJECT_ID = 2023-066A CENTER_NAME = EARTH REF_FRAME = TEME TIME_SYSTEM = UTC MEAN_ELEMENT_THEORY = SGP/SGP4 EPOCH = 2026-09-12T07:43:39.806400 MEAN_MOTION = 1.00271116 ECCENTRICITY = .00052568 INCLINATION = 0.44 RA_OF_ASC_NODE = 356.6797 ARG_OF_PERICENTER = 198.7514 MEAN_ANOMALY = 51.8772 EPHEMERIS_TYPE = 0 CLASSIFICATION_TYPE = U NORAD_CAT_ID = 56564 ELEMENT_SET_NO = 999 REV_AT_EPOCH = 1226 BSTAR = 0 MEAN_MOTION_DOT = -.29500E-5 MEAN_MOTION_DDOT = 0 CCSDS_OMM_VERS = 2.0 CREATION_DATE = ORIGINATOR = OBJECT_NAME = BEIDOU-3 M28 (C50) OBJECT_ID = 2023-207A CENTER_NAME = EARTH REF_FRAME = TEME TIME_SYSTEM = UTC MEAN_ELEMENT_THEORY = SGP/SGP4 EPOCH = 2026-09-12T06:52:26.879808 MEAN_MOTION = 1.86229677 ECCENTRICITY = .00007109 INCLINATION = 55.8347 RA_OF_ASC_NODE = 59.3693 ARG_OF_PERICENTER = 44.96 MEAN_ANOMALY = 315.0622 EPHEMERIS_TYPE = 0 CLASSIFICATION_TYPE = U NORAD_CAT_ID = 58654 ELEMENT_SET_NO = 999 REV_AT_EPOCH = 1846 BSTAR = 0 MEAN_MOTION_DOT = -.45000E-6 MEAN_MOTION_DDOT = 0 CCSDS_OMM_VERS = 2.0 CREATION_DATE = ORIGINATOR = OBJECT_NAME = BEIDOU-3 M26 (C48) OBJECT_ID = 2023-207B CENTER_NAME = EARTH REF_FRAME = TEME TIME_SYSTEM = UTC MEAN_ELEMENT_THEORY = SGP/SGP4 EPOCH = 2026-09-12T02:00:52.112736 MEAN_MOTION = 1.86229584 ECCENTRICITY = .00009182 INCLINATION = 55.8364 RA_OF_ASC_NODE = 59.3628 ARG_OF_PERICENTER = 252.9433 MEAN_ANOMALY = 107.0639 EPHEMERIS_TYPE = 0 CLASSIFICATION_TYPE = U NORAD_CAT_ID = 58655 ELEMENT_SET_NO = 999 REV_AT_EPOCH = 1844 BSTAR = 0 MEAN_MOTION_DOT = -.43000E-6 MEAN_MOTION_DDOT = 0 CCSDS_OMM_VERS = 2.0 CREATION_DATE = ORIGINATOR = OBJECT_NAME = BEIDOU-3 M25 (C47) OBJECT_ID = 2024-168B CENTER_NAME = EARTH REF_FRAME = TEME TIME_SYSTEM = UTC MEAN_ELEMENT_THEORY = SGP/SGP4 EPOCH = 2026-09-11T08:44:35.394720 MEAN_MOTION = 1.86230059 ECCENTRICITY = .00045218 INCLINATION = 54.3933 RA_OF_ASC_NODE = 299.2402 ARG_OF_PERICENTER = 288.6681 MEAN_ANOMALY = 66.5723 EPHEMERIS_TYPE = 0 CLASSIFICATION_TYPE = U NORAD_CAT_ID = 61186 ELEMENT_SET_NO = 999 REV_AT_EPOCH = 1338 BSTAR = 0 MEAN_MOTION_DOT = -.51000E-6 MEAN_MOTION_DDOT = 0 CCSDS_OMM_VERS = 2.0 CREATION_DATE = ORIGINATOR = OBJECT_NAME = BEIDOU-3 M27 (C49) OBJECT_ID = 2024-168C CENTER_NAME = EARTH REF_FRAME = TEME TIME_SYSTEM = UTC MEAN_ELEMENT_THEORY = SGP/SGP4 EPOCH = 2026-09-11T19:19:42.947616 MEAN_MOTION = 1.86230254 ECCENTRICITY = .00007278 INCLINATION = 54.3885 RA_OF_ASC_NODE = 299.2074 ARG_OF_PERICENTER = 333.0111 MEAN_ANOMALY = 92.9908 EPHEMERIS_TYPE = 0 CLASSIFICATION_TYPE = U NORAD_CAT_ID = 61187 ELEMENT_SET_NO = 999 REV_AT_EPOCH = 1087 BSTAR = 0 MEAN_MOTION_DOT = -.54000E-6 MEAN_MOTION_DDOT = 0